SCP
0 -0 -0 -0 0 -0 0 0 0 -0 -0 -0 0 0 0 0 0 0 0 0 -0 -0 -0 -0 -0 -0 -0 -0 -0 -1 -0 -0 -0 -0 0 0 0 0 0 0 0 0 0 0 0 0 0 0 0
0 0 -0 0 0 0 0 0 0 0 -0 0 0 0 0 0 0 0 0 -0 -0 -0 -0 -0 -0 -0 -0 -0 -0 -0 -0 -0 -0 -0 -0 0 0 0 0 0 0 0 0 0 0 0 0 0 0
0 0 0 0 0 0 0 0 0 0 -0 0 -0 0 0 0 0 0 0 0 -0 -0 -0 -0 -0 -0 -0 -0 -0 -0 -0 -0 -0 -0 -0 -0 -0 0 0 0 0 0 0 0 0 0 0 0 0
0 0 0 0 -0 0 0 0 0 0 0 0 0 0 0 0 0 0 0 0 -0 -0 -0 -0 -0 -0 -0 -0 -0 -0 -0 -0 -0 -0 -0 -0 -0 -0 0 0 0 0 0 0 0 0 0 0 0
0 0 0 0 0 0 0 0 0 0 0 0 0 0 0 0 0 0 0 0 -0 -0 -0 -0 -0 -0 -0 -0 -0 -0 -0 -0 -0 -0 -0 -0 -0 -0 -0 -0 0 0 0 -0 0 0 0 0 0
0 0 -0 0 -0 0 0 0 0 0 0 0 0 0 0 0 0 0 0 0 -0 -0 -0 -0 -0 -0 -0 -0 -0 -0 -0 -0 -0 -0 -0 -0 -0 -0 -0 -0 -0 -0 -0 -0 0 0 0 0 0
0 0 0 0 0 0 0 0 0 0 0 0 0 0 0 0 0 -0 -0 0 0 0 0 0 -0 -0 -0 -0 -0 0 0 -0 -0 -0 -0 -0 -0 -0 -0 -0 -0 -0 -0 -0 0 0 0 0 -0
0 0 0 0 0 0 0 0 0 0 0 0 0 0 0 1 0 0 -0 0 0 0 0 0 0 -0 0 -0 -0 0 0 0 0 -0 -0 -0 -0 -0 -0 -0 -0 -0 -0 -0 0 0 0 0 -0
0 0 0 0 0 0 0 0 0 0 0 0 0 0 0 1 0 0 0 0 0 0 0 0 0 0 0 0 0 0 0 0 0 0 0 -0 -0 -0 -0 -0 -0 -0 0 0 0 0 0 0 0
-0 0 -0 0 0 0 0 0 0 0 0 0 0 0 0 0 0 0 0 0 0 0 0 0 0 0 0 0 0 0 0 0 0 0 0 0 0 0 0 0 0 0 -0 0 0 0 0 -0 0
-0 -0 0 0 0 0 0 0 0 0 0 0 0 0 0 0 0 0 0 0 0 0 0 0 0 0 0 0 0 0 0 0 0 0 0 0 0 0 0 0 0 0 -0 -0 -0 0 0 0 0
0 0 0 0 0 0 0 0 0 0 0 0 0 0 0 0 0 0 -0 0 0 -0 0 0 0 0 0 0 0 0 0 0 0 0 0 0 0 0 0 0 0 0 0 0 0 0 0 0 0
0 0 0 0 0 0 0 -0 -0 0 0 0 0 0 0 0 0 0 0 0 0 0 -0 0 0 0 0 0 0 0 0 0 0 0 0 0 0 0 0 0 0 0 0 0 0 0 0 0 0
0 0 0 0 0 0 0 -0 -0 0 0 0 0 0 0 0 0 1 0 0 0 0 0 0 0 0 0 0 0 0 0 0 0 0 0 0 0 0 0 0 0 0 0 0 0 0 0 0 0
0 0 0 0 0 0 0 0 0 -0 0 0 0 0 0 0 0 1 1 1 0 0 0 0 0 0 0 0 1 1 0 0 0 0 0 0 0 0 0 0 0 0 0 0 0 0 0 0 0
0 0 0 0 0 0 0 0 0 0 0 -0 0 0 0 0 0 0 0 1 0 0 0 0 0 0 0 1 1 1 0 0 0 0 0 0 0 0 0 0 0 0 0 0 0 0 0 0 0
0 0 0 0 0 0 0 0 0 0 0 0 -0 0 0 0 0 0 0 0 0 0 0 0 0 0 0 0 1 1 1 1 0 0 0 0 0 0 0 0 0 0 0 0 0 0 0 0 0
0 0 0 0 0 0 0 0 0 0 0 0 0 0 0 0 0 0 0 0 0 0 1 0 1 1 1 1 1 0 0 0 0 0 1 0 0 0 0 0 0 1 0 0 0 0 0 0 0
0 0 0 0 0 0 0 0 0 0 0 0 0 0 0 0 0 0 0 0 0 0 0 0 1 1 1 1 1 0 0 -0 0 0 0 0 0 0 0 0 0 0 0 0 0 0 0 0 0
0 0 0 0 0 0 0 0 0 0 0 0 0 0 0 0 0 0 0 0 1 0 0 0 0 1 1 1 1 1 0 0 0 -0 0 0 0 0 0 0 0 0 0 0 0 0 0 0 0
0 0 0 0 0 0 0 0 0 0 0 0 0 0 0 0 0 0 0 1 1 1 1 1 1 1 1 1 1 1 1 1 0 0 0 0 0 0 0 0 0 1 0 0 0 0 0 0 0
0 0 0 0 0 0 0 0 0 0 0 0 0 0 0 0 0 0 0 1 1 1 1 1 1 2 1 1 1 1 1 1 1 1 0 1 0 0 1 1 0 1 0 1 0 0 0 0 0
0 0 0 0 0 0 0 0 0 0 0 0 0 0 0 0 0 0 1 1 1 1 1 1 1 2 2 1 1 1 1 1 1 1 1 2 1 0 0 0 1 1 1 0 0 0 0 0 0
0 0 0 0 0 0 0 0 0 0 0 0 0 0 0 0 0 0 0 0 1 1 2 2 2 2 2 1 1 1 1 1 2 2 1 1 1 1 1 0 1 1 1 0 0 0 0 0 0
0 0 0 0 0 0 0 0 0 0 0 0 0 0 0 0 0 0 0 0 0 1 2 3 3 2 3 2 1 1 1 1 1 2 2 2 2 2 2 2 2 2 1 0 0 0 0 0 0
0 0 0 0 0 0 0 0 0 0 0 0 0 0 0 0 0 0 0 0 0 0 0 1 2 2 3 3 3 2 1 2 1 1 2 3 2 5 3 2 1 1 0 0 0 0 0 0 0
0 0 0 0 0 0 0 0 0 0 0 0 0 0 0 0 0 0 0 0 0 0 0 0 0 0 1 2 4 3 3 2 3 3 3 5 3 2 1 1 0 0 0 0 0 0 0 0 0
0 0 0 0 0 0 0 0 0 0 0 0 0 0 0 0 0 0 0 0 0 0 0 0 0 0 0 0 1 2 3 2 2 3 2 2 2 1 1 0 0 0 0 0 0 0 0 0 0
0 0 0 0 0 0 0 0 0 0 0 0 0 0 0 0 0 0 0 0 0 0 0 0 0 0 0 0 0 1 2 2 2 2 2 2 2 1 1 1 0 0 0 0 0 0 0 0 0
0 0 0 0 0 0 0 0 0 0 0 0 0 0 0 0 0 0 0 0 0 0 0 0 0 0 0 0 0 0 1 1 1 1 1 2 1 1 0 0 0 0 0 0 0 0 0 0 0
Wind_Speed_500mb
16 13 13 10 15 12 11 15 7 14 5 12 5 8 6 20 9 10 11 27 44 52 52 55 52 48 42 39 38 37 35 34 31 27 25 24 22 18 15 13 11 9 7 7 7 7 7 7 7
13 9 10 14 16 16 16 2 9 8 13 11 8 15 16 10 3 8 14 22 44 54 55 55 55 51 44 38 38 38 38 34 31 26 24 22 20 16 12 9 7 5 4 3 3 2 2 4 5
8 6 15 10 16 19 11 7 4 6 10 13 8 7 5 3 2 6 11 27 47 54 58 58 56 51 47 43 40 40 38 35 30 26 24 20 17 14 10 6 5 4 3 2 2 1 1 2 5
5 8 12 20 32 8 9 10 6 8 3 15 13 11 6 9 5 5 12 33 51 54 57 58 56 53 48 45 43 42 39 34 30 26 22 18 15 12 9 5 4 4 3 2 1 2 2 3 5
9 11 21 25 32 26 6 11 13 13 10 17 15 6 6 2 17 9 14 39 51 57 54 58 56 53 50 47 44 41 38 34 30 25 22 18 14 12 9 6 5 5 3 3 3 2 3 4 4
18 14 19 27 31 20 11 19 15 19 6 11 20 10 3 1 1 7 22 39 46 54 51 61 56 52 48 46 43 40 37 33 30 26 23 19 15 12 9 7 7 7 6 9 8 7 8 7 6
29 17 28 29 21 15 15 15 26 16 21 10 21 10 5 3 6 16 27 40 46 49 51 60 58 54 49 44 42 40 37 33 30 27 24 21 18 15 10 8 8 8 9 5 3 4 4 4 4
21 15 29 24 23 23 5 17 9 18 14 15 9 5 13 3 12 21 28 37 44 48 48 49 58 56 53 48 44 40 36 33 31 28 26 24 20 16 10 9 9 8 7 1 2 5 4 3 2
15 17 23 28 18 15 9 12 12 13 24 12 5 9 8 7 15 20 27 35 45 49 51 47 48 48 47 41 48 43 39 36 34 32 30 26 18 16 12 12 11 8 6 2 0 2 3 4 2
27 22 27 5 13 12 9 10 15 19 18 20 9 3 2 13 22 26 32 40 49 54 55 52 50 48 46 41 41 47 44 41 39 36 34 28 21 19 15 17 12 9 7 5 4 2 5 6 3
24 30 13 13 19 14 14 17 17 23 24 25 10 11 8 14 21 25 28 31 41 48 52 54 54 53 49 44 41 42 37 37 39 39 36 29 25 23 19 14 12 9 7 4 5 6 5 5 4
22 28 21 13 16 22 20 16 24 26 32 20 22 24 17 23 23 25 27 29 38 51 53 53 54 59 54 45 42 38 37 35 33 35 41 34 31 26 21 17 15 13 9 12 4 6 9 5 5
31 22 19 24 22 22 23 27 27 28 30 23 18 16 15 21 22 24 25 27 33 46 52 55 53 59 62 60 43 42 39 37 32 32 37 35 30 27 24 21 17 14 13 10 9 6 5 4 4
11 34 22 18 23 20 25 28 20 26 21 25 17 12 13 10 19 22 23 24 30 39 49 51 55 55 57 62 53 46 49 40 41 33 33 41 33 29 25 23 19 16 14 12 10 8 5 4 5
17 20 25 27 28 23 22 29 32 31 16 25 20 14 10 14 12 16 16 19 24 32 40 50 56 55 61 62 64 54 41 42 40 38 41 44 43 38 32 25 23 20 19 16 13 11 9 6 5
23 21 26 13 19 23 23 25 28 16 16 25 26 18 13 8 11 11 13 19 25 30 38 43 46 53 59 59 59 56 48 47 47 46 41 49 48 46 40 30 26 23 22 20 14 10 10 10 9
20 24 21 16 16 10 28 23 15 20 16 20 26 22 14 8 5 9 7 15 25 30 34 38 46 50 50 54 54 52 52 47 51 56 50 47 49 48 47 36 29 30 24 22 20 15 13 13 13
21 25 18 21 15 20 22 24 17 25 19 21 14 14 8 3 13 17 20 18 19 28 34 38 43 50 55 52 58 54 35 24 36 40 55 58 54 53 51 41 35 37 28 27 26 21 16 15 15
12 17 17 13 6 15 27 26 23 24 27 31 16 5 6 14 16 21 24 23 20 16 28 35 40 49 56 60 61 57 64 59 50 51 58 67 58 51 53 43 35 45 36 31 31 26 24 17 19
21 24 24 13 14 19 16 24 24 21 10 3 2 7 14 20 24 26 28 26 27 17 17 30 37 44 53 56 55 57 56 51 57 70 52 45 59 55 50 50 37 39 34 41 37 31 20 20 24
25 25 20 20 15 20 17 27 23 17 19 14 13 13 16 23 29 31 32 30 29 28 23 22 34 39 47 52 52 61 70 72 70 71 74 67 57 57 56 55 49 47 45 36 41 34 31 24 25
30 25 25 20 19 22 26 22 29 30 19 12 14 16 20 24 27 31 31 32 32 30 29 25 25 35 38 44 49 54 56 71 75 70 60 57 55 61 58 56 55 54 48 40 41 39 32 33 29
28 18 26 25 24 26 26 18 16 25 22 9 15 20 23 26 29 33 35 33 35 33 31 24 14 21 29 34 42 42 49 46 52 62 67 66 58 56 57 52 57 57 52 50 49 43 37 33 32
8 17 22 22 24 30 34 25 24 24 15 9 14 20 23 26 29 35 37 37 39 37 36 28 17 11 16 23 31 37 40 37 40 42 35 39 45 51 54 50 58 56 54 54 52 49 43 42 38
22 23 19 24 25 29 31 32 9 14 17 13 14 17 20 22 27 34 39 43 47 48 43 38 33 17 7 14 22 25 32 33 37 42 39 37 33 35 42 56 63 66 57 48 51 49 48 48 49
26 27 25 30 26 26 16 19 13 16 17 18 16 15 18 23 25 29 36 39 40 46 47 44 39 31 26 17 15 20 24 25 27 36 37 39 34 44 47 50 60 64 61 46 42 47 47 39 46
16 22 13 20 18 20 12 14 13 13 15 14 15 13 16 19 19 24 32 37 37 38 40 41 41 39 35 26 19 19 24 27 28 33 40 50 55 52 54 48 47 44 29 39 42 39 39 46 49
6 5 8 8 14 26 23 17 5 25 18 14 10 7 12 14 15 21 28 32 32 33 34 36 36 37 37 34 30 24 15 21 31 39 38 50 44 45 36 29 28 41 42 47 34 47 37 49 49
12 14 9 8 15 12 14 4 13 12 11 1 6 12 15 15 16 19 22 25 29 32 33 35 33 30 32 33 33 32 23 18 15 23 29 33 36 36 37 41 38 56 60 73 62 60 57 51 51
21 24 28 21 30 22 25 10 9 12 9 7 13 13 19 19 19 21 25 28 28 29 33 31 31 30 29 29 31 32 29 22 17 17 22 33 36 46 38 41 48 29 38 47 47 76 59 62 55
Wind_Direction_500mb
258 284 312 297 258 235 114 98 103 103 158 20 324 261 245 326 351 34 127 163 167 168 177 175 174 169 172 176 175 174 175 173 166 164 159 153 149 143 143 142 138 129 119 107 102 102 108 120 135
233 276 289 279 260 234 112 64 203 35 45 357 296 259 244 267 291 121 132 161 170 171 178 179 179 173 174 179 178 177 178 171 168 167 164 160 154 150 152 152 139 123 111 94 82 75 109 139 156
212 214 267 268 259 255 93 81 37 324 325 353 331 248 302 106 117 163 180 168 166 172 179 182 179 177 177 178 179 178 178 175 171 172 169 163 157 157 161 158 140 139 145 152 138 158 203 169 163
202 216 235 252 251 197 286 121 21 326 67 356 340 261 206 194 157 163 188 172 169 172 176 182 181 179 179 179 180 181 180 177 176 175 174 169 168 171 171 167 172 182 180 143 111 109 123 146 156
204 240 249 241 250 266 235 284 305 304 325 358 357 5 254 200 222 254 190 174 174 173 174 183 183 183 183 182 184 185 184 182 180 180 182 182 185 186 180 182 203 214 220 265 285 262 214 185 178
213 261 238 240 240 236 264 274 277 283 309 346 338 304 72 336 220 171 166 168 173 173 174 183 186 185 189 188 189 190 190 189 187 187 190 193 198 199 198 204 209 227 259 284 281 253 228 217 209
249 228 249 258 269 266 271 276 262 294 289 20 331 298 64 61 151 142 150 163 170 176 174 184 186 189 192 194 195 197 197 196 197 196 197 201 205 207 211 224 220 243 282 278 257 211 223 227 236
242 261 254 245 251 245 160 256 266 274 300 327 339 14 59 57 145 144 147 160 169 178 178 180 186 190 193 197 201 202 204 205 205 206 205 208 211 216 228 239 236 267 276 280 174 208 220 275 291
218 242 244 238 246 232 171 254 259 278 271 275 286 324 300 185 156 149 150 162 173 181 184 182 183 187 189 194 203 204 207 209 212 213 215 216 215 224 237 231 255 260 245 258 0 213 253 273 282
219 235 251 302 281 249 206 244 281 284 248 260 219 76 37 181 178 175 174 176 180 185 189 188 187 190 189 194 201 205 210 213 214 218 221 215 213 211 202 236 248 236 243 248 299 284 314 11 264
219 250 267 223 249 247 273 261 250 260 261 233 273 305 252 207 199 196 194 198 192 193 193 192 190 191 191 195 197 201 205 209 216 217 219 215 221 228 225 224 221 225 247 306 318 328 349 253 195
251 237 248 247 230 250 252 277 258 248 255 275 288 291 261 223 215 208 210 206 202 199 198 199 198 203 196 198 202 202 203 210 214 220 225 218 222 224 212 212 212 209 232 229 229 276 276 251 220
235 250 245 244 242 248 259 252 255 253 252 262 281 291 259 234 217 212 219 220 206 207 205 204 203 209 210 207 206 205 207 214 218 222 228 220 222 226 223 219 214 219 230 247 256 247 282 249 237
230 239 242 238 238 232 244 248 235 244 238 260 260 261 239 223 206 206 214 214 208 206 208 205 208 212 211 215 212 215 221 217 222 224 226 232 228 231 225 227 226 230 235 239 242 255 257 251 242
228 238 222 234 237 234 232 246 230 244 251 249 247 254 252 228 218 221 230 232 221 219 212 209 209 212 219 225 226 221 220 221 227 228 233 238 237 233 225 231 235 244 239 231 237 274 267 252 248
228 239 248 189 218 222 220 246 205 191 242 248 241 251 263 262 260 250 248 242 231 219 220 215 212 215 226 224 230 226 226 230 234 239 235 244 243 237 238 231 237 243 236 237 231 240 244 238 233
205 249 214 164 207 190 212 246 174 200 234 250 254 251 262 283 17 13 321 262 247 236 226 228 226 218 219 222 225 227 232 242 251 250 246 244 246 243 239 233 233 235 238 234 235 241 234 237 213
226 220 225 250 160 224 214 246 235 232 233 237 244 253 276 343 26 10 358 323 267 238 236 228 231 231 226 227 234 228 221 225 252 255 252 245 244 243 242 234 231 240 236 239 238 239 242 228 223
261 259 254 235 237 252 247 253 245 228 225 232 214 218 335 348 4 1 2 3 342 264 237 232 234 233 229 232 231 229 215 211 209 222 254 239 240 239 242 236 238 244 237 235 241 255 251 233 220
233 237 240 255 230 222 225 242 234 222 191 139 187 40 359 346 352 358 356 353 357 341 255 242 236 236 236 233 231 227 227 226 223 213 243 245 242 242 245 245 235 244 232 243 243 250 232 230 219
228 236 230 255 163 236 257 240 213 137 145 115 66 40 16 -0 351 355 356 356 350 345 327 262 243 231 235 230 235 234 229 229 226 231 244 247 246 244 245 248 239 242 235 238 242 251 248 236 234
237 213 242 225 225 244 196 259 184 163 147 93 49 33 20 13 9 5 4 2 357 344 337 313 251 240 233 232 229 236 231 234 235 239 249 253 248 243 242 244 245 241 237 228 243 248 249 231 235
252 224 222 233 242 257 203 252 197 154 166 71 54 49 41 33 30 25 19 13 4 3 356 350 303 246 236 234 228 235 237 240 241 242 247 252 251 245 242 240 241 238 237 240 242 248 256 238 230
251 225 236 241 246 237 238 213 238 182 112 107 81 63 53 45 38 36 34 26 21 15 15 9 3 306 269 248 244 235 236 238 233 236 239 231 243 240 236 234 233 233 236 239 245 246 255 243 238
219 225 227 221 226 242 239 223 239 87 95 99 95 80 60 46 38 35 33 31 27 25 24 24 20 1 333 276 253 252 242 241 237 230 238 228 229 217 223 224 227 232 234 231 239 246 252 250 246
219 242 247 254 246 235 146 218 114 114 118 110 98 77 60 47 47 42 29 24 25 26 28 28 26 23 8 339 283 264 251 245 245 235 225 226 220 209 220 223 228 232 236 232 236 246 257 251 251
184 230 352 289 276 279 217 117 147 151 147 150 126 83 56 44 46 28 20 19 21 23 21 23 24 22 20 12 344 295 269 250 242 232 235 220 224 242 243 244 236 237 254 255 236 254 253 249 253
295 72 222 229 270 262 259 255 210 174 152 138 119 66 38 26 23 20 18 14 13 12 12 11 14 15 16 16 4 347 318 275 266 255 249 249 247 245 244 222 246 247 257 278 267 242 253 256 250
180 196 229 267 229 245 263 259 13 125 100 207 41 14 1 336 335 342 350 356 356 358 355 353 357 6 7 2 360 5 343 320 289 260 250 236 232 218 235 255 259 256 267 268 241 221 236 242 246
264 269 278 249 231 239 259 243 131 121 109 66 61 40 31 15 358 345 330 328 329 331 340 350 352 350 354 358 357 357 358 349 324 286 238 221 230 231 247 239 241 248 244 262 242 233 224 228 239
Wind_Speed_850mb
16 13 13 10 15 12 11 15 7 14 5 12 5 8 6 20 9 10 11 27 44 52 52 55 52 48 42 39 38 37 35 34 31 27 25 24 22 18 15 13 11 9 7 7 7 7 7 7 7
13 9 10 14 16 16 16 2 9 8 13 11 8 15 16 10 3 8 14 22 44 54 55 55 55 51 44 38 38 38 38 34 31 26 24 22 20 16 12 9 7 5 4 3 3 2 2 4 5
8 6 15 10 16 19 11 7 4 6 10 13 8 7 5 3 2 6 11 27 47 54 58 58 56 51 47 43 40 40 38 35 30 26 24 20 17 14 10 6 5 4 3 2 2 1 1 2 5
5 8 12 20 32 8 9 10 6 8 3 15 13 11 6 9 5 5 12 33 51 54 57 58 56 53 48 45 43 42 39 34 30 26 22 18 15 12 9 5 4 4 3 2 1 2 2 3 5
9 11 21 25 32 26 6 11 13 13 10 17 15 6 6 2 17 9 14 39 51 57 54 58 56 53 50 47 44 41 38 34 30 25 22 18 14 12 9 6 5 5 3 3 3 2 3 4 4
18 14 19 27 31 20 11 19 15 19 6 11 20 10 3 1 1 7 22 39 46 54 51 61 56 52 48 46 43 40 37 33 30 26 23 19 15 12 9 7 7 7 6 9 8 7 8 7 6
29 17 28 29 21 15 15 15 26 16 21 10 21 10 5 3 6 16 27 40 46 49 51 60 58 54 49 44 42 40 37 33 30 27 24 21 18 15 10 8 8 8 9 5 3 4 4 4 4
21 15 29 24 23 23 5 17 9 18 14 15 9 5 13 3 12 21 28 37 44 48 48 49 58 56 53 48 44 40 36 33 31 28 26 24 20 16 10 9 9 8 7 1 2 5 4 3 2
15 17 23 28 18 15 9 12 12 13 24 12 5 9 8 7 15 20 27 35 45 49 51 47 48 48 47 41 48 43 39 36 34 32 30 26 18 16 12 12 11 8 6 2 0 2 3 4 2
27 22 27 5 13 12 9 10 15 19 18 20 9 3 2 13 22 26 32 40 49 54 55 52 50 48 46 41 41 47 44 41 39 36 34 28 21 19 15 17 12 9 7 5 4 2 5 6 3
24 30 13 13 19 14 14 17 17 23 24 25 10 11 8 14 21 25 28 31 41 48 52 54 54 53 49 44 41 42 37 37 39 39 36 29 25 23 19 14 12 9 7 4 5 6 5 5 4
22 28 21 13 16 22 20 16 24 26 32 20 22 24 17 23 23 25 27 29 38 51 53 53 54 59 54 45 42 38 37 35 33 35 41 34 31 26 21 17 15 13 9 12 4 6 9 5 5
31 22 19 24 22 22 23 27 27 28 30 23 18 16 15 21 22 24 25 27 33 46 52 55 53 59 62 60 43 42 39 37 32 32 37 35 30 27 24 21 17 14 13 10 9 6 5 4 4
11 34 22 18 23 20 25 28 20 26 21 25 17 12 13 10 19 22 23 24 30 39 49 51 55 55 57 62 53 46 49 40 41 33 33 41 33 29 25 23 19 16 14 12 10 8 5 4 5
17 20 25 27 28 23 22 29 32 31 16 25 20 14 10 14 12 16 16 19 24 32 40 50 56 55 61 62 64 54 41 42 40 38 41 44 43 38 32 25 23 20 19 16 13 11 9 6 5
23 21 26 13 19 23 23 25 28 16 16 25 26 18 13 8 11 11 13 19 25 30 38 43 46 53 59 59 59 56 48 47 47 46 41 49 48 46 40 30 26 23 22 20 14 10 10 10 9
20 24 21 16 16 10 28 23 15 20 16 20 26 22 14 8 5 9 7 15 25 30 34 38 46 50 50 54 54 52 52 47 51 56 50 47 49 48 47 36 29 30 24 22 20 15 13 13 13
21 25 18 21 15 20 22 24 17 25 19 21 14 14 8 3 13 17 20 18 19 28 34 38 43 50 55 52 58 54 35 24 36 40 55 58 54 53 51 41 35 37 28 27 26 21 16 15 15
12 17 17 13 6 15 27 26 23 24 27 31 16 5 6 14 16 21 24 23 20 16 28 35 40 49 56 60 61 57 64 59 50 51 58 67 58 51 53 43 35 45 36 31 31 26 24 17 19
21 24 24 13 14 19 16 24 24 21 10 3 2 7 14 20 24 26 28 26 27 17 17 30 37 44 53 56 55 57 56 51 57 70 52 45 59 55 50 50 37 39 34 41 37 31 20 20 24
25 25 20 20 15 20 17 27 23 17 19 14 13 13 16 23 29 31 32 30 29 28 23 22 34 39 47 52 52 61 70 72 70 71 74 67 57 57 56 55 49 47 45 36 41 34 31 24 25
30 25 25 20 19 22 26 22 29 30 19 12 14 16 20 24 27 31 31 32 32 30 29 25 25 35 38 44 49 54 56 71 75 70 60 57 55 61 58 56 55 54 48 40 41 39 32 33 29
28 18 26 25 24 26 26 18 16 25 22 9 15 20 23 26 29 33 35 33 35 33 31 24 14 21 29 34 42 42 49 46 52 62 67 66 58 56 57 52 57 57 52 50 49 43 37 33 32
8 17 22 22 24 30 34 25 24 24 15 9 14 20 23 26 29 35 37 37 39 37 36 28 17 11 16 23 31 37 40 37 40 42 35 39 45 51 54 50 58 56 54 54 52 49 43 42 38
22 23 19 24 25 29 31 32 9 14 17 13 14 17 20 22 27 34 39 43 47 48 43 38 33 17 7 14 22 25 32 33 37 42 39 37 33 35 42 56 63 66 57 48 51 49 48 48 49
26 27 25 30 26 26 16 19 13 16 17 18 16 15 18 23 25 29 36 39 40 46 47 44 39 31 26 17 15 20 24 25 27 36 37 39 34 44 47 50 60 64 61 46 42 47 47 39 46
16 22 13 20 18 20 12 14 13 13 15 14 15 13 16 19 19 24 32 37 37 38 40 41 41 39 35 26 19 19 24 27 28 33 40 50 55 52 54 48 47 44 29 39 42 39 39 46 49
6 5 8 8 14 26 23 17 5 25 18 14 10 7 12 14 15 21 28 32 32 33 34 36 36 37 37 34 30 24 15 21 31 39 38 50 44 45 36 29 28 41 42 47 34 47 37 49 49
12 14 9 8 15 12 14 4 13 12 11 1 6 12 15 15 16 19 22 25 29 32 33 35 33 30 32 33 33 32 23 18 15 23 29 33 36 36 37 41 38 56 60 73 62 60 57 51 51
21 24 28 21 30 22 25 10 9 12 9 7 13 13 19 19 19 21 25 28 28 29 33 31 31 30 29 29 31 32 29 22 17 17 22 33 36 46 38 41 48 29 38 47 47 76 59 62 55
Wind_Direction_850mb
258 284 312 297 258 235 114 98 103 103 158 20 324 261 245 326 351 34 127 163 167 168 177 175 174 169 172 176 175 174 175 173 166 164 159 153 149 143 143 142 138 129 119 107 102 102 108 120 135
233 276 289 279 260 234 112 64 203 35 45 357 296 259 244 267 291 121 132 161 170 171 178 179 179 173 174 179 178 177 178 171 168 167 164 160 154 150 152 152 139 123 111 94 82 75 109 139 156
212 214 267 268 259 255 93 81 37 324 325 353 331 248 302 106 117 163 180 168 166 172 179 182 179 177 177 178 179 178 178 175 171 172 169 163 157 157 161 158 140 139 145 152 138 158 203 169 163
202 216 235 252 251 197 286 121 21 326 67 356 340 261 206 194 157 163 188 172 169 172 176 182 181 179 179 179 180 181 180 177 176 175 174 169 168 171 171 167 172 182 180 143 111 109 123 146 156
204 240 249 241 250 266 235 284 305 304 325 358 357 5 254 200 222 254 190 174 174 173 174 183 183 183 183 182 184 185 184 182 180 180 182 182 185 186 180 182 203 214 220 265 285 262 214 185 178
213 261 238 240 240 236 264 274 277 283 309 346 338 304 72 336 220 171 166 168 173 173 174 183 186 185 189 188 189 190 190 189 187 187 190 193 198 199 198 204 209 227 259 284 281 253 228 217 209
249 228 249 258 269 266 271 276 262 294 289 20 331 298 64 61 151 142 150 163 170 176 174 184 186 189 192 194 195 197 197 196 197 196 197 201 205 207 211 224 220 243 282 278 257 211 223 227 236
242 261 254 245 251 245 160 256 266 274 300 327 339 14 59 57 145 144 147 160 169 178 178 180 186 190 193 197 201 202 204 205 205 206 205 208 211 216 228 239 236 267 276 280 174 208 220 275 291
218 242 244 238 246 232 171 254 259 278 271 275 286 324 300 185 156 149 150 162 173 181 184 182 183 187 189 194 203 204 207 209 212 213 215 216 215 224 237 231 255 260 245 258 0 213 253 273 282
219 235 251 302 281 249 206 244 281 284 248 260 219 76 37 181 178 175 174 176 180 185 189 188 187 190 189 194 201 205 210 213 214 218 221 215 213 211 202 236 248 236 243 248 299 284 314 11 264
219 250 267 223 249 247 273 261 250 260 261 233 273 305 252 207 199 196 194 198 192 193 193 192 190 191 191 195 197 201 205 209 216 217 219 215 221 228 225 224 221 225 247 306 318 328 349 253 195
251 237 248 247 230 250 252 277 258 248 255 275 288 291 261 223 215 208 210 206 202 199 198 199 198 203 196 198 202 202 203 210 214 220 225 218 222 224 212 212 212 209 232 229 229 276 276 251 220
235 250 245 244 242 248 259 252 255 253 252 262 281 291 259 234 217 212 219 220 206 207 205 204 203 209 210 207 206 205 207 214 218 222 228 220 222 226 223 219 214 219 230 247 256 247 282 249 237
230 239 242 238 238 232 244 248 235 244 238 260 260 261 239 223 206 206 214 214 208 206 208 205 208 212 211 215 212 215 221 217 222 224 226 232 228 231 225 227 226 230 235 239 242 255 257 251 242
228 238 222 234 237 234 232 246 230 244 251 249 247 254 252 228 218 221 230 232 221 219 212 209 209 212 219 225 226 221 220 221 227 228 233 238 237 233 225 231 235 244 239 231 237 274 267 252 248
228 239 248 189 218 222 220 246 205 191 242 248 241 251 263 262 260 250 248 242 231 219 220 215 212 215 226 224 230 226 226 230 234 239 235 244 243 237 238 231 237 243 236 237 231 240 244 238 233
205 249 214 164 207 190 212 246 174 200 234 250 254 251 262 283 17 13 321 262 247 236 226 228 226 218 219 222 225 227 232 242 251 250 246 244 246 243 239 233 233 235 238 234 235 241 234 237 213
226 220 225 250 160 224 214 246 235 232 233 237 244 253 276 343 26 10 358 323 267 238 236 228 231 231 226 227 234 228 221 225 252 255 252 245 244 243 242 234 231 240 236 239 238 239 242 228 223
261 259 254 235 237 252 247 253 245 228 225 232 214 218 335 348 4 1 2 3 342 264 237 232 234 233 229 232 231 229 215 211 209 222 254 239 240 239 242 236 238 244 237 235 241 255 251 233 220
233 237 240 255 230 222 225 242 234 222 191 139 187 40 359 346 352 358 356 353 357 341 255 242 236 236 236 233 231 227 227 226 223 213 243 245 242 242 245 245 235 244 232 243 243 250 232 230 219
228 236 230 255 163 236 257 240 213 137 145 115 66 40 16 -0 351 355 356 356 350 345 327 262 243 231 235 230 235 234 229 229 226 231 244 247 246 244 245 248 239 242 235 238 242 251 248 236 234
237 213 242 225 225 244 196 259 184 163 147 93 49 33 20 13 9 5 4 2 357 344 337 313 251 240 233 232 229 236 231 234 235 239 249 253 248 243 242 244 245 241 237 228 243 248 249 231 235
252 224 222 233 242 257 203 252 197 154 166 71 54 49 41 33 30 25 19 13 4 3 356 350 303 246 236 234 228 235 237 240 241 242 247 252 251 245 242 240 241 238 237 240 242 248 256 238 230
251 225 236 241 246 237 238 213 238 182 112 107 81 63 53 45 38 36 34 26 21 15 15 9 3 306 269 248 244 235 236 238 233 236 239 231 243 240 236 234 233 233 236 239 245 246 255 243 238
219 225 227 221 226 242 239 223 239 87 95 99 95 80 60 46 38 35 33 31 27 25 24 24 20 1 333 276 253 252 242 241 237 230 238 228 229 217 223 224 227 232 234 231 239 246 252 250 246
219 242 247 254 246 235 146 218 114 114 118 110 98 77 60 47 47 42 29 24 25 26 28 28 26 23 8 339 283 264 251 245 245 235 225 226 220 209 220 223 228 232 236 232 236 246 257 251 251
184 230 352 289 276 279 217 117 147 151 147 150 126 83 56 44 46 28 20 19 21 23 21 23 24 22 20 12 344 295 269 250 242 232 235 220 224 242 243 244 236 237 254 255 236 254 253 249 253
295 72 222 229 270 262 259 255 210 174 152 138 119 66 38 26 23 20 18 14 13 12 12 11 14 15 16 16 4 347 318 275 266 255 249 249 247 245 244 222 246 247 257 278 267 242 253 256 250
180 196 229 267 229 245 263 259 13 125 100 207 41 14 1 336 335 342 350 356 356 358 355 353 357 6 7 2 360 5 343 320 289 260 250 236 232 218 235 255 259 256 267 268 241 221 236 242 246
264 269 278 249 231 239 259 243 131 121 109 66 61 40 31 15 358 345 330 328 329 331 340 350 352 350 354 358 357 357 358 349 324 286 238 221 230 231 247 239 241 248 244 262 242 233 224 228 239